Location: DARK SKY Beskydy - Park tmavé oblohy, www.darkskybeskydy.cz
(49.4926°N, 18.5016°E)
Time: 01:25:00
(UTC+01:00)

Tiangong - Pass Details

Date: 06 December 2022
Orbit: 383 x 386 km, 41.5° (Epoch: 28 January)

Event Time Altitude Azimuth Distance (km) Brightness Sun altitude
Rises 17:01:57 0° 244° (WSW) 2,252 3.9 -11.5°
Reaches altitude 10° 17:04:23 10° 226° (SW) 1,402 1.9 -11.9°
Maximum altitude 17:06:44 19° 178° (S) 983 0.1 -12.3°
Drops below altitude 10° 17:09:06 10° 129° (SE) 1,412 0.4 -12.6°
Enters shadow 17:09:22 - 126° (SE) 1,497 0.5 -12.7°
